Date String (YYYY-MM-DD hh:mm:ss) UTC,Instrument flags,absolute air pressure of the measurement (hPa),sample flow rate (lpm),inlet stack bypass flow (lpm),air temperature of the measurement (°C),ambient temperature measured by the external sensor (°C),aerosol sample conditioner tube jacket temperature (°C),OPC LED temperature (°C),internal box temperature (°C),relative humidity of the measurement (%),span deviation,mass concentration of particles derived from Lorenz-Mie calculation of OPC scattering (μg/m³),mass concentration of particles derived from Lorenz-Mie calculation of OPC scattering (μg/m³),mass concentration of particles derived from Lorenz-Mie calculation of OPC scattering (μg/m³)
DateTimeUTC,F1_M11,P_M11,Q1_M11,Q2_M11,T1_M11,T2_M11,T3_M11,T4_M11,T5_M11,U1_M11,ZSPAN_M11,X0_M11,X2_M11,X1_M11
2023-08-05 17:00:00,SystemResetWarning,0835.3,5.01,000.00,029.7,027.1,000.0,037.9,030.9,34.0,-001.3,0011.54,0006.58,0006.01
2023-08-05 17:01:00,SystemResetWarning,0835.3,4.99,000.00,029.7,027.4,000.0,038.0,030.9,33.3,-002.2,0011.56,0006.59,0006.02
2023-08-05 17:02:00,SystemResetWarning,0835.4,5.00,000.00,029.8,027.6,000.0,038.0,031.0,33.4,-002.2,0011.14,0006.59,0006.01
2023-08-05 17:03:00,SystemResetWarning,0835.3,5.00,000.00,029.8,027.8,000.0,038.0,031.1,32.9,-001.7,0010.57,0006.54,0005.99
2023-08-05 17:04:00,SystemResetWarning,0835.3,4.99,000.00,029.8,027.6,000.0,038.0,031.1,33.2,-001.3,0010.58,0006.55,0005.98
2023-08-05 17:05:00,SystemResetWarning,0835.0,5.00,000.00,029.8,026.1,000.0,037.9,030.8,32.7,-002.1,0010.50,0006.65,0006.03
2023-08-05 17:06:00,SystemResetWarning,0834.8,5.00,000.00,029.8,025.2,000.0,037.8,030.6,32.2,-001.6,0010.63,0006.71,0006.09
2023-08-05 17:07:00,SystemResetWarning,0834.8,5.01,000.00,029.7,025.1,000.0,037.7,030.5,32.4,-001.1,0010.74,0006.79,0006.15
2023-08-05 17:08:00,SystemResetWarning,0835.2,5.01,000.00,029.6,025.4,000.0,037.8,030.4,32.4,-000.5,0010.78,0006.85,0006.21
2023-08-05 17:09:00,SystemResetWarning,0835.4,5.00,000.00,029.5,025.9,000.0,037.8,030.5,32.5,0000.0,0010.75,0006.88,0006.26
2023-08-05 17:10:00,SystemResetWarning,0835.4,5.00,000.00,029.5,026.3,000.0,037.9,030.7,31.9,0000.0,0010.81,0006.92,0006.27
2023-08-05 17:11:00,SystemResetWarning,0835.4,5.00,000.00,029.5,026.7,000.0,037.9,030.8,32.0,0000.3,0010.30,0006.91,0006.24
2023-08-05 17:12:00,SystemResetWarning,0835.2,4.99,000.00,029.5,027.0,000.0,037.9,030.8,32.0,0000.4,0010.33,0006.87,0006.21
2023-08-05 17:13:00,SystemResetWarning,0835.3,4.99,000.00,029.5,027.3,000.0,037.9,030.9,31.8,0000.4,0010.71,0006.90,0006.23
2023-08-05 17:14:00,SystemResetWarning,0834.9,5.00,000.00,029.6,027.6,000.0,037.9,031.0,31.4,0000.6,0010.74,0006.91,0006.25
2023-08-05 17:15:00,SystemResetWarning,0834.8,5.00,000.00,029.6,027.8,000.0,038.0,031.0,31.3,0000.3,0010.77,0006.95,0006.30
2023-08-05 17:16:00,SystemResetWarning,0835.4,4.99,000.00,029.6,027.2,000.0,037.9,031.0,31.4,0000.0,0010.70,0006.94,0006.31
2023-08-05 17:17:00,SystemResetWarning,0835.2,5.00,000.00,029.6,025.6,000.0,037.8,030.7,31.4,-000.8,0010.68,0006.93,0006.28
2023-08-05 17:18:00,SystemResetWarning,0834.9,5.01,000.00,029.5,024.9,000.0,037.6,030.5,31.5,-001.1,0010.96,0006.91,0006.26
2023-08-05 17:19:00,SystemResetWarning,0834.7,5.02,000.00,029.4,025.0,000.0,037.6,030.3,32.5,-001.3,0011.78,0006.94,0006.25
2023-08-05 17:20:00,SystemResetWarning,0834.6,4.99,000.00,029.3,025.4,000.0,037.7,030.3,34.1,-001.7,0012.57,0006.97,0006.26
2023-08-05 17:21:00,SystemResetWarning,0834.6,5.00,000.00,029.3,025.8,000.0,037.7,030.4,33.6,-001.6,0012.83,0007.01,0006.29
2023-08-05 17:22:00,SystemResetWarning,0834.6,5.00,000.00,029.3,026.3,000.0,037.7,030.5,34.1,-001.9,0013.14,0007.05,0006.36
2023-08-05 17:23:00,SystemResetWarning,0834.9,4.99,000.00,029.3,026.7,000.0,037.7,030.7,34.8,-002.0,0013.59,0007.11,0006.43
2023-08-05 17:24:00,SystemResetWarning,0834.5,5.01,000.00,029.3,027.0,000.0,037.7,030.8,34.2,-001.8,0013.43,0007.19,0006.50
2023-08-05 17:25:00,SystemResetWarning,0834.5,4.99,000.00,029.4,027.3,000.0,037.8,030.8,34.7,-001.4,0014.06,0007.22,0006.54
2023-08-05 17:26:00,SystemResetWarning,0834.5,4.99,000.00,029.5,027.5,000.0,037.8,030.9,35.2,-001.2,0015.12,0007.20,0006.53
2023-08-05 17:27:00,SystemResetWarning,0834.5,5.04,000.00,029.6,027.7,000.0,037.8,031.0,34.7,-001.0,0015.25,0007.19,0006.52
2023-08-05 17:28:00,SystemResetWarning,0834.8,4.96,000.00,029.8,027.5,000.0,037.8,031.1,34.0,-000.9,0015.93,0007.17,0006.50
2023-08-05 17:29:00,SystemResetWarning,0834.9,5.02,000.00,029.9,026.0,000.0,037.7,030.8,34.3,-000.8,0015.80,0007.12,0006.48
2023-08-05 17:30:00,SystemResetWarning,0835.1,5.00,000.00,029.9,025.0,000.0,037.6,030.6,33.8,-001.1,0015.10,0007.09,0006.44
2023-08-05 17:31:00,SystemResetWarning,0834.7,5.00,000.00,029.8,024.9,000.0,037.6,030.4,33.9,-001.0,0014.28,0007.03,0006.38
2023-08-05 17:32:00,SystemResetWarning,0834.7,5.00,000.00,029.7,025.2,000.0,037.7,030.3,34.0,-001.0,0014.30,0006.93,0006.32
2023-08-05 17:33:00,SystemResetWarning,0835.1,4.99,000.00,029.7,025.7,000.0,037.7,030.5,33.5,-000.8,0014.42,0006.84,0006.25
2023-08-05 17:34:00,SystemResetWarning,0834.8,5.00,000.00,029.6,026.1,000.0,037.8,030.6,33.5,-000.4,0013.78,0006.78,0006.18
2023-08-05 17:35:00,SystemResetWarning,0834.7,5.01,000.00,029.7,026.5,000.0,037.8,030.7,33.8,-000.5,0013.68,0006.68,0006.11
2023-08-05 17:36:00,SystemResetWarning,0834.9,4.99,000.00,029.7,026.9,000.0,037.9,030.8,33.7,-001.1,0013.22,0006.61,0006.04
2023-08-05 17:37:00,SystemResetWarning,0834.9,4.99,000.00,029.7,027.2,000.0,037.9,030.9,33.5,-001.1,0011.98,0006.58,0005.99
2023-08-05 17:38:00,SystemResetWarning,0834.7,5.00,000.00,029.7,027.5,000.0,038.0,030.9,33.3,-000.7,0011.88,0006.49,0005.92
2023-08-05 17:39:00,SystemResetWarning,0834.8,5.01,000.00,029.7,027.7,000.0,038.0,031.0,33.2,-000.0,0011.36,0006.40,0005.86
2023-08-05 17:40:00,SystemResetWarning,0834.9,4.99,000.00,029.8,027.7,000.0,038.0,031.0,33.4,-000.0,0011.52,0006.38,0005.81
2023-08-05 17:41:00,SystemResetWarning,0834.8,4.99,000.00,029.8,026.5,000.0,037.9,030.8,33.8,0000.4,0011.64,0006.36,0005.81
2023-08-05 17:42:00,SystemResetWarning,0834.7,5.01,000.00,029.7,025.7,000.0,037.8,030.6,34.4,0000.5,0011.69,0006.39,0005.81
2023-08-05 17:43:00,SystemResetWarning,0834.8,5.00,000.00,029.7,025.7,000.0,037.8,030.6,34.7,0000.8,0011.53,0006.41,0005.81
2023-08-05 17:44:00,SystemResetWarning,0835.1,5.00,000.00,029.6,026.0,000.0,037.8,030.6,34.4,0001.2,0011.51,0006.45,0005.82
2023-08-05 17:45:00,SystemResetWarning,0834.7,4.99,000.00,029.5,026.4,000.0,037.9,030.7,34.5,0001.2,0011.89,0006.52,0005.87
2023-08-05 17:46:00,SystemResetWarning,0834.5,5.00,000.00,029.5,026.7,000.0,037.9,030.8,34.6,0001.0,0011.85,0006.54,0005.91
2023-08-05 17:47:00,SystemResetWarning,0834.4,5.00,000.00,029.6,027.1,000.0,037.9,030.8,34.3,0000.9,0011.84,0006.62,0005.96
2023-08-05 17:48:00,SystemResetWarning,0834.3,4.98,000.00,029.6,027.4,000.0,037.9,030.9,35.0,0000.1,0011.92,0006.66,0006.00
2023-08-05 17:49:00,SystemResetWarning,0834.4,5.03,000.00,029.7,027.6,000.0,038.0,031.0,34.6,0000.2,0012.64,0006.72,0006.05
2023-08-05 17:50:00,SystemResetWarning,0834.4,4.97,000.00,029.8,027.7,000.0,038.0,031.1,34.5,0000.0,0012.44,0006.80,0006.11
2023-08-05 17:51:00,SystemResetWarning,0834.4,5.01,000.00,029.9,026.5,000.0,037.9,031.0,34.8,0000.8,0012.43,0006.81,0006.15
2023-08-05 17:52:00,SystemResetWarning,0834.4,5.00,000.00,029.9,025.1,000.0,037.8,030.7,35.2,0000.2,0012.45,0006.84,0006.19
2023-08-05 17:53:00,SystemResetWarning,0834.4,5.03,000.00,030.0,024.7,000.0,037.7,030.6,35.1,0000.8,0012.45,0006.85,0006.22
2023-08-05 17:54:00,SystemResetWarning,0834.4,5.00,000.00,030.1,024.9,000.0,037.8,030.5,34.5,0000.3,0012.41,0006.86,0006.25
2023-08-05 17:55:00,SystemResetWarning,0834.5,5.00,000.00,030.2,025.4,000.0,037.8,030.6,34.4,0000.0,0011.96,0006.89,0006.29
2023-08-05 17:56:00,SystemResetWarning,0834.6,5.00,000.00,030.3,025.9,000.0,037.9,030.7,34.0,0000.0,0011.64,0006.88,0006.29
2023-08-05 17:57:00,SystemResetWarning,0834.9,5.00,000.00,030.3,026.3,000.0,038.0,030.8,33.6,0000.4,0012.33,0006.90,0006.29
2023-08-05 17:58:00,SystemResetWarning,0834.6,4.99,000.00,030.4,026.7,000.0,038.1,030.9,33.8,0000.7,0012.36,0006.93,0006.30
2023-08-05 17:59:00,SystemResetWarning,0834.5,5.00,000.00,030.4,027.0,000.0,038.2,030.9,33.9,0000.9,0012.33,0006.93,0006.31
